Regional Weather Roundup
Issued by NWS

Home | Current Version | Previous Version | Graphics & Text | Print | Product List | Glossary On
Versions: 1 2 3 4 5 6 7 8 9 10 11 12 13 14 15 16 17 18 19 20 21 22 23 24 25 26 27 28 29 30 31 32 33 34 35 36 37 38 39 40 41 42 43 44 45 46 47 48 49 50
000
ASUS45 KCYS 272010
RWRWY

WYOMING REGIONAL WEATHER ROUNDUP
NATIONAL WEATHER SERVICE CHEYENNE WY
200 PM MDT MON APR 27 2015

NOTE:  "FAIR" INDICATES FEW OR NO CLOUDS BELOW 12,000 FEET
WITH NO SIGNIFICANT WEATHER AND/OR OBSTRUCTIONS TO VISIBILITY.

WYZ001-272100-
YELLOWSTONE NATIONAL PARK

CITY           SKY/WX    TMP DP  RH WIND       PRES   REMARKS
LK YELLOWSTONE NOT AVBL
W YELLOWSTONE  NOT AVBL

$$
WYZ002>013-054>058-071-098>099-272100-
NORTHERN WYOMING

CITY           SKY/WX    TMP DP  RH WIND       PRES   REMARKS
JACKSON        MOSUNNY   52  23  32 CALM      30.25F
CODY           FAIR      48  34  57 NE5       30.29F
GREYBULL       FAIR      53  35  50 VRB6      30.30F
WORLAND        FAIR      50  34  54 CALM      30.30F
SHERIDAN       CLOUDY    50  36  58 S5        30.31F
BUFFALO        CLOUDY    45  34  65 NW5       30.33S
GILLETTE       PTSUNNY   45  36  70 VRB3      30.33S
HULETT         CLOUDY    41  37  87 N5        30.34S
NEWCASTLE      LGT RAIN  45  43  93 NW9       30.32S

$$
WYZ014>020-022>026-101>103-272100-
CENTRAL WYOMING

CITY           SKY/WX    TMP DP  RH WIND       PRES   REMARKS
BIG PINEY      PTSUNNY   50  29  44 S8        30.27F
PINEDALE       CLOUDY    46  32  57 SE3       30.27F
DUBOIS         FAIR      43  30  61 CALM      30.28F
LANDER         CLOUDY    44  35  70 SE5       30.30F
RIVERTON       PTSUNNY   47  32  56 NE6       30.31F
CASPER         CLOUDY    42  34  73 VRB6      30.32F
DOUGLAS        CLOUDY    42  38  85 N7        30.33F

$$
WYZ021-027>030-104>119-272100-
SOUTHERN WYOMING

CITY           SKY/WX    TMP DP  RH WIND       PRES   REMARKS
EVANSTON       PTSUNNY   49  35  58 N9        30.27F
KEMMERER       CLOUDY    46  36  66 SE6       30.28S
FORT BRIDGER   CLOUDY    48  37  66 E5        30.32S
ROCK SPRINGS   CLOUDY    47  35  63 NE14      30.27S
DIXON          CLOUDY    53  37  54 N10G17    30.21S
RAWLINS        CLOUDY    48  34  58 NE15G23   30.27S
SARATOGA       MOCLDY    50  37  62 N12       30.24R
LARAMIE        CLOUDY    46  34  62 SE15      30.24S
CHEYENNE       CLOUDY    41  37  86 E8        30.28S
TORRINGTON     CLOUDY    52  39  61 VRB6      30.28S
PINE BLUFFS    CLOUDY    43  37  81 E5        30.29S

$$


USA.gov is the U.S. government's official web portal to all federal, state and local government web resources and services.